Regional Weather Roundup
Issued by NWS Sioux Falls, SD

Home | Current Version | Previous Version | Text Only | Print | Product List | Glossary On
Versions: 1 2 3 4 5 6 7 8 9 10 11 12 13 14 15 16 17 18 19 20 21 22 23 24 25 26 27 28 29 30 31 32 33 34 35 36 37 38 39 40 41 42 43 44 45 46 47 48 49 50
000
ASUS43 KFSD 282310
RWRFSD

WEATHER ROUNDUP FOR SE SOUTH DAKOTA/SW MINNESOTA/NW IOWA
NATIONAL WEATHER SERVICE SIOUX FALLS SD
500 PM CST WED JAN 28 2015

NOTE: "FAIR" INDICATES FEW OR NO CLOUDS BELOW 12,000 FEET WITH NO
SIGNIFICANT WEATHER AND OR OBSTRUCTIONS TO VISIBILITY.


SDZ038>040-050-052>070-290000-
SOUTHEAST SOUTH DAKOTA

CITY           SKY/WX    TMP DP  RH WIND       PRES   REMARKS
CHAMBERLAIN    MOCLDY    51  34  52 NW17G25   29.83R
HURON          PTCLDY    41  36  82 NW10      29.78R
MADISON        FAIR      39  39 100 N10       29.72R
MITCHELL       CLEAR     47  39  74 N17       29.76R
SIOUX FALLS    MOCLDY    43  35  73 NW5       29.72R
WINNER         FAIR      56  30  37 NW32G39   29.84R
YANKTON        CLEAR     48  37  66 NW14      29.73R
$$

MNZ071-072-080-081-089-090-097-098-290000-
SOUTHWEST MINNESOTA

CITY           SKY/WX    TMP DP  RH WIND       PRES   REMARKS
FAIRMONT       CLOUDY    34  28  80 SE6       29.73R WCI  29
JACKSON        CLOUDY    34  32  93 SE5       29.72F FOG     WCI  30
LUVERNE        CLOUDY    37  34  87 CALM      29.73R FOG
MARSHALL       CLOUDY    34  30  86 SE5       29.75R WCI  30
MONTEVIDEO     CLOUDY    34  34 100 SE5       29.76F FOG     WCI  30
PIPESTONE      CLOUDY    36  34  93 CALM      29.71R FOG
REDWOOD FALLS  CLOUDY    34  31  88 SE3       29.76R FOG
TRACY          CLOUDY    34  32  94 CALM      29.74R FOG
WINDOM         CLOUDY    34  32  93 CALM      29.74R FOG
WORTHINGTON    CLOUDY    34  30  86 CALM      29.73R
$$

IAZ001>003-012>014-020>022-031-032-NEZ013-014-SDZ071-290000-
NORTHWEST IOWA

CITY           SKY/WX    TMP DP  RH WIND       PRES   REMARKS
CHEROKEE       MOCLDY    41  38  89 E6        29.69S FOG
DENISON        MOCLDY    52  37  58 SW5       29.66F
ESTHERVILLE    CLOUDY    33  31  92 SE8       29.71R FOG     WCI  26
LE MARS        PTCLDY    45  37  76 SW5       29.70R
ORANGE CITY    PTCLDY    45  37  76 W3        29.70R
SHELDON        MOCLDY    36  36 100 E5        29.70R FOG
SIOUX CITY     CLEAR     48  37  65 E7        29.70R
SPENCER        MOCLDY    36  32  85 SE7       29.70F FOG
STORM LAKE     MOCLDY    41  37  87 E7        29.68F
$$

ABBREVIATIONS USED IN REMARKS
   TC - TEMPERATURE IN CELSIUS
  WCI - WIND CHILL INDEX
   HX - HEAT INDEX
  VSB - VISIBILITY




USA.gov is the U.S. government's official web portal to all federal, state and local government web resources and services.